METEOR 2-5 DEB, 45510

Orbit data source: Space-Track

METEOR 2-5 DEB, 45510 is space debris in LEO originally from a launch on Wed, 31 Oct 1979 UTC launched from the Plesetsk Missile And Space Complex (PKMTR). Debris objects in space refer to the collection of defunct objects orbiting the Earth. Examples of debris include non-operational satellites, rocket bodies, and fragments generated from explosions, collisions, or faulty payload assembly.

Loading next visibility...
Identifier
45510, 1979-095CS
Orbit
LEO
Country
Flag of CISCIS
Related business
Manufacturer
Unknown
Mission
Spacecraft
Bus & Motor
Unknown
Mass
Unknown
Launch date (UTC)
1979-10-31 (46 years ago)
Launch vehicle
Unknown
Launch site
Plesetsk Missile And Space Complex (PKMTR)
Object type
Payload
Rocket body
Debris
Shape & HBR
Unknown shape, 0.1 m
Radar Cross Section
Small (<0.1 m²)

Expand to show TLE details & history
Last TLE update: 2 days ago

TLE from 2 days ago
0 METEOR 2-5 DEB
1 45510U 79095CS  25353.81184474  .00003505  00000-0  15592-2 0  9997
2 45510  81.1913  21.8302 0013397  28.4353 331.7553 14.22695340416974
Epoch: 2025-12-19T19:29Z
TLE epoch observation values (Epoch: 2025-12-19T19:29:03.385Z)
Latitude
-0.00001°
Longitude
0.91846°
Altitude
810.677 km
Speed
7.452 km/s
True Right ascension
01h 27m 19s
True Declination
0° 00' 00"
Sunlit
Object was in daylight at epoch
Visualization orbit readout
Latitude
Unknown
Longitude
Unknown
Altitude
Unknown
Speed
Unknown
Apparent Right ascension
Unknown
Apparent Declination
Unknown
Sunlit
N/A
Visualization observer readout
Local Sidereal Time
13:25:49
Azimuth
Unknown
Elevation
Unknown
Doppler factor
Unknown
Orbital elements
Apogee altitude
823.046 km
Perigee altitude
803.777 km
Semi-major axis
7,191.549 km
Eccentricity
0.00134
Inclination
81.1913°
RAAN
21.8302°
Arg. of periapsis
28.4353°
True anomaly
331.68254°
Mean anomaly
331.7553°
Eccentric anomaly
331.71893°
Mean motion
3.55885 °/min
Orbital period
101.16 mins
BSTAR
0.0015592
Loading maneuver chart data...
Computing Atmospheric mass density...

Documentation

Showing up to 5 results
|